This is the latest recevied weather packets stored in our database for station/object KE0LFX. If no packets are shown the sender has not sent any weather packets the latest 10 day(s).
| Time | Temp. | Humidity | Pressure | Rain* | Wind** | Luminosity | Snow |
|---|---|---|---|---|---|---|---|
| 1777944838 | 17.22° C | 37% | 1006.7 hPa | 0 mm | - | 0 W/m² | - |
| 1777944537 | 17.22° C | 36% | 1006.5 hPa | 0 mm | - | 0 W/m² | - |
| 1777944234 | 17.22° C | 36% | 1006.3 hPa | 0 mm | - | 0 W/m² | - |
| 1777943930 | 17.22° C | 36% | 1006.2 hPa | 0 mm | - | 0 W/m² | - |
| 1777943627 | 17.78° C | 35% | 1006.3 hPa | 0 mm | - | 0 W/m² | - |
| 1777943323 | 17.78° C | 35% | 1006 hPa | 0 mm | - | 1 W/m² | - |
| 1777943019 | 17.78° C | 35% | 1006 hPa | 0 mm | - | 2 W/m² | - |
| 1777942715 | 18.33° C | 35% | 1005.7 hPa | 0 mm | - | 4 W/m² | - |
| 1777942412 | 18.33° C | 35% | 1005.8 hPa | 0 mm | - | 6 W/m² | - |
| 1777942110 | 18.89° C | 35% | 1005.9 hPa | 0 mm | - | 9 W/m² | - |
| 1777941806 | 18.89° C | 36% | 1005.7 hPa | 0 mm | - | 15 W/m² | - |
| 1777941504 | 18.89° C | 36% | 1005.3 hPa | 0 mm | - | 19 W/m² | - |
| 1777941201 | 19.44° C | 36% | 1005.3 hPa | 0 mm | - | 23 W/m² | - |
| 1777940896 | 19.44° C | 36% | 1005.2 hPa | 0 mm | - | 28 W/m² | - |
| 1777940594 | 20° C | 36% | 1005.2 hPa | 0 mm | - | 32 W/m² | - |
| 1777940292 | 20° C | 36% | 1005.3 hPa | 0 mm | - | 38 W/m² | - |
| 1777939989 | 20° C | 35% | 1005 hPa | 0 mm | - | 42 W/m² | - |
| 1777939686 | 20.56° C | 35% | 1005 hPa | 0 mm | - | 48 W/m² | - |
| 1777939384 | 20.56° C | 35% | 1004.7 hPa | 0 mm | - | 61 W/m² | - |
| 1777939080 | 21.11° C | 35% | 1004.7 hPa | 0 mm | - | 73 W/m² | - |
| 1777938776 | 21.67° C | 35% | 1004.4 hPa | 0 mm | - | 83 W/m² | - |
| 1777938474 | 21.67° C | 35% | 1004.3 hPa | 0 mm | - | 92 W/m² | - |
| 1777938171 | 22.22° C | 34% | 1004.4 hPa | 0 mm | - | 96 W/m² | - |
| 1777937867 | 22.22° C | 34% | 1004.2 hPa | 0 mm | - | 103 W/m² | - |
| 1777937563 | 22.22° C | 34% | 1004 hPa | 0 mm | - | 119 W/m² | - |
* Rain latest hour (hover to see other rain measurements)
** Current wind speed in m/s (hover to see current wind gust speed)